FW4831 Weather Reports


Display with metric or nautical units.
time (UTC)temp
F
wind
direction
speed
MPH
gust
MPH
rain 1hr
in
rain 24hr
in
rain mn
in
humidity
%
barometer
mb
20260505024751 70 336 3.0 5.0 0.00 0.00 0.00 58 1007.6
20260505024248 70 353 3.0 6.0 0.00 0.00 0.00 59 1007.6
20260505023748 70 333 2.0 6.0 0.00 0.00 0.00 58 1007.5
20260505023248 71 317 3.0 6.0 0.00 0.00 0.00 58 1007.5
20260505022746 71 326 3.0 6.0 0.00 0.00 0.00 58 1007.3
20260505022613 71 0 3.0 12.0 0.00 0.00 0.00 58 1007.4
20260505021744 71 353 4.0 12.0 0.00 0.00 0.00 57 1007.3
20260505021242 71 324 4.0 12.0 0.00 0.00 0.00 57 1007.2
20260505020743 71 0 4.0 7.0 0.00 0.00 0.00 59 1007.2
20260505020603 71 1 4.0 10.0 0.00 0.00 0.00 58 1007.0
20260505015740 71 27 4.0 10.0 0.00 0.00 0.00 57 1007.0
20260505015239 71 348 3.0 5.0 0.00 0.00 0.00 57 1007.0
20260505014739 71 348 3.0 6.0 0.00 0.00 0.00 57 1006.9
20260505014604 72 358 3.0 7.0 0.00 0.00 0.00 57 1006.9
20260505014100 72 27 3.0 7.0 0.00 0.00 0.00 57 1006.6
20260505013234 72 8 4.0 7.0 0.00 0.00 0.00 58 1006.7
20260505013116 72 17 3.0 6.0 0.00 0.00 0.00 58 1006.7
20260505012231 72 358 3.0 6.0 0.00 0.00 0.00 57 1006.7
20260505012051 72 358 4.0 6.0 0.00 0.00 0.00 56 1006.6
20260505011230 72 320 2.0 5.0 0.00 0.00 0.00 57 1006.6
20260505010731 73 338 2.0 5.0 0.00 0.00 0.00 56 1006.5
20260505010233 73 1 1.0 5.0 0.00 0.00 0.00 54 1006.3
20260505005727 73 309 2.0 4.0 0.00 0.00 0.00 54 1006.3
20260505005223 74 323 2.0 5.0 0.00 0.00 0.00 54 1006.3
20260505004723 74 348 2.0 5.0 0.00 0.00 0.00 54 1006.4
20260505004221 74 337 2.0 5.0 0.00 0.00 0.00 53 1006.4
20260505004039 74 1 2.0 6.0 0.00 0.00 0.00 53 1006.5
20260505003537 74 313 2.0 10.0 0.00 0.00 0.00 53 1006.4
20260505002714 75 69 3.0 10.0 0.00 0.00 0.00 53 1006.4
20260505002214 75 25 2.0 5.0 0.00 0.00 0.00 52 1006.5
20260505001713 75 18 3.0 7.0 0.00 0.00 0.00 52 1006.5
20260505001213 75 16 3.0 7.0 0.00 0.00 0.00 52 1006.6
20260505000711 75 11 3.0 9.0 0.00 0.00 0.00 51 1006.5
20260505000211 76 324 4.0 9.0 0.00 0.00 0.00 50 1006.6
20260504235708 76 307 4.0 7.0 0.00 0.00 0.00 50 1006.5
20260504235208 76 333 4.0 9.0 0.00 0.00 0.00 50 1006.5
20260504234708 76 310 5.0 9.0 0.00 0.00 0.00 49 1006.5
20260504234209 76 0 4.0 7.0 0.00 0.00 0.00 49 1006.6
20260504234037 76 334 5.0 14.0 0.00 0.00 0.00 48 1006.7
20260504233209 76 314 6.0 14.0 0.00 0.00 0.00 49 1006.7
20260504232711 77 1 6.0 14.0 0.00 0.00 0.00 48 1006.8
20260504232210 77 354 5.0 12.0 0.00 0.00 0.00 48 1006.8
20260504231709 77 0 4.0 10.0 0.00 0.00 0.00 49 1006.9
20260504231212 77 333 4.0 10.0 0.00 0.00 0.00 49 1006.9
20260504230708 77 302 4.0 10.0 0.00 0.00 0.00 47 1007.0
20260504230210 78 327 4.0 17.0 0.00 0.00 0.00 47 1007.0
20260504225709 78 351 8.0 17.0 0.00 0.00 0.00 45 1007.0
20260504225211 78 343 7.0 15.0 0.00 0.00 0.00 46 1007.0
20260504224709 78 275 5.0 15.0 0.00 0.00 0.00 46 1007.0
20260504224531 78 334 7.0 15.0 0.00 0.00 0.00 45 1006.9
20260504223710 78 207 6.0 17.0 0.00 0.00 0.00 46 1006.9
20260504223209 79 0 6.0 17.0 0.00 0.00 0.00 45 1006.9
20260504223048 79 25 10.0 16.0 0.00 0.00 0.00 45 1006.9
20260504222209 79 117 6.0 19.0 0.00 0.00 0.00 45 1006.9
20260504221711 79 18 7.0 19.0 0.00 0.00 0.00 44 1006.9
20260504221210 79 307 8.0 17.0 0.00 0.00 0.00 44 1007.0
20260504220709 79 0 9.0 20.0 0.00 0.00 0.00 44 1006.9
20260504220210 79 334 10.0 20.0 0.00 0.00 0.00 43 1006.9
20260504215709 80 4 11.0 17.0 0.00 0.00 0.00 44 1007.0
20260504215208 80 336 7.0 17.0 0.00 0.00 0.00 44 1007.1
20260504215028 80 7 7.0 14.0 0.00 0.00 0.00 45 1007.1
20260504214208 80 90 6.0 18.0 0.00 0.00 0.00 44 1007.1
20260504214032 80 305 8.0 18.0 0.00 0.00 0.00 44 1007.1
20260504213211 80 0 6.0 20.0 0.00 0.00 0.00 44 1007.2
20260504213051 80 25 9.0 20.0 0.00 0.00 0.00 44 1007.1
20260504212211 80 6 6.0 16.0 0.00 0.00 0.00 44 1007.1
20260504211708 80 347 8.0 19.0 0.00 0.00 0.00 45 1007.2
20260504211209 80 0 8.0 19.0 0.00 0.00 0.00 44 1007.3
20260504210709 80 0 7.0 19.0 0.00 0.00 0.00 43 1007.3
20260504210208 80 338 9.0 19.0 0.00 0.00 0.00 44 1007.4
20260504205715 80 0 8.0 17.0 0.00 0.00 0.00 44 1007.5
20260504205209 80 8 8.0 19.0 0.00 0.00 0.00 44 1007.5
20260504204709 80 293 8.0 19.0 0.00 0.00 0.00 44 1007.5
20260504204209 80 0 8.0 17.0 0.00 0.00 0.00 44 1007.6
20260504204028 80 10 11.0 19.0 0.00 0.00 0.00 43 1007.7
20260504203208 80 343 10.0 19.0 0.00 0.00 0.00 43 1007.8
20260504202710 80 337 9.0 21.0 0.00 0.00 0.00 43 1007.8
20260504202209 80 358 9.0 21.0 0.00 0.00 0.00 43 1007.8
20260504201708 80 13 10.0 18.0 0.00 0.00 0.00 44 1007.9
20260504201210 80 6 6.0 19.0 0.00 0.00 0.00 43 1008.1
20260504200709 80 17 8.0 21.0 0.00 0.00 0.00 43 1008.2
20260504200209 80 338 11.0 21.0 0.00 0.00 0.00 43 1008.3
20260504195710 80 4 13.0 21.0 0.00 0.00 0.00 42 1008.3
20260504195209 80 0 8.0 17.0 0.00 0.00 0.00 43 1008.4
20260504194854 80 0 9.0 16.0 0.00 0.00 0.00 43 1008.6
20260504194817 80 319 9.0 17.0 0.00 0.00 0.00 42 1008.3
20260504193708 81 309 9.0 16.0 0.00 0.00 0.00 43 1008.6
20260504193211 81 326 6.0 17.0 0.00 0.00 0.00 42 1008.6
20260504192709 80 268 9.0 17.0 0.00 0.00 0.00 42 1008.5
20260504192210 80 357 7.0 17.0 0.00 0.00 0.00 43 1008.6
20260504191711 80 341 10.0 19.0 0.00 0.00 0.00 43 1008.6
20260504191209 80 330 10.0 20.0 0.00 0.00 0.00 44 1008.8
20260504190710 80 355 11.0 20.0 0.00 0.00 0.00 42 1008.7
20260504190211 80 334 8.0 19.0 0.00 0.00 0.00 43 1008.9
20260504185710 80 1 6.0 19.0 0.00 0.00 0.00 43 1008.9
20260504185210 80 337 11.0 18.0 0.00 0.00 0.00 42 1008.8
20260504184721 79 0 12.0 19.0 0.00 0.00 0.00 45 1009.0
20260504184715 80 357 8.0 19.0 0.00 0.00 0.00 44 1009.0
20260504184710 80 321 9.0 17.0 0.00 0.00 0.00 43 1009.0
20260504183210 80 1 10.0 16.0 0.00 0.00 0.00 44 1009.1
20260504182710 80 0 7.0 18.0 0.00 0.00 0.00 45 1009.1
20260504182208 79 1 8.0 18.0 0.00 0.00 0.00 44 1009.2
20260504181708 80 321 8.0 17.0 0.00 0.00 0.00 44 1009.2
20260504181210 79 347 7.0 17.0 0.00 0.00 0.00 43 1009.3
20260504180708 79 348 10.0 19.0 0.00 0.00 0.00 45 1009.2
20260504180208 79 329 11.0 21.0 0.00 0.00 0.00 43 1009.4
20260504175709 79 355 10.0 21.0 0.00 0.00 0.00 44 1009.6
20260504175204 78 333 10.0 21.0 0.00 0.00 0.00 43 1009.6
20260504174704 79 321 9.0 16.0 0.00 0.00 0.00 43 1009.8
20260504174204 79 4 7.0 15.0 0.00 0.00 0.00 44 1009.7
20260504173701 78 312 9.0 24.0 0.00 0.00 0.00 43 1009.9
20260504173204 78 330 8.0 24.0 0.00 0.00 0.00 45 1010.0
20260504173019 78 265 8.0 18.0 0.00 0.00 0.00 44 1010.0
20260504172201 78 0 10.0 20.0 0.00 0.00 0.00 43 1009.9
20260504171702 78 334 7.0 20.0 0.00 0.00 0.00 46 1010.1
20260504171201 78 292 6.0 16.0 0.00 0.00 0.00 46 1010.3
20260504170701 77 302 7.0 21.0 0.00 0.00 0.00 45 1010.3
20260504170202 77 357 9.0 21.0 0.00 0.00 0.00 44 1010.3
20260504160139 76 262 5.0 14.0 0.00 0.00 0.00 49 1011.0
20260504151130 74 321 6.0 13.0 0.00 0.00 0.00 52 1011.5
20260504150633 73 25 5.0 15.0 0.00 0.00 0.00 53 1011.5
20260504150130 73 93 7.0 15.0 0.00 0.00 0.00 52 1011.5
20260504140616 69 1 4.0 9.0 0.00 0.00 0.00 61 1012.0
20260504140116 68 343 2.0 11.0 0.00 0.00 0.00 65 1012.0
20260504130610 62 0 2.0 4.0 0.00 0.00 0.00 75 1011.7
20260504130109 62 0 1.0 3.0 0.00 0.00 0.00 76 1011.6
20260504120109 59 0 0.0 2.0 0.00 0.00 0.00 78 1011.5
20260504110611 60 358 0.0 2.0 0.00 0.00 0.00 75 1011.1
20260504110108 60 0 0.0 2.0 0.00 0.00 0.00 75 1011.1
20260504100610 62 0 1.0 3.0 0.00 0.00 0.00 72 1011.0
20260504100111 62 358 1.0 4.0 0.00 0.00 0.00 71 1011.1
20260504090107 62 329 3.0 6.0 0.00 0.00 0.00 72 1011.3
20260504081608 64 358 2.0 5.0 0.00 0.00 0.00 68 1011.4
20260504081418 64 78 3.0 5.0 0.00 0.00 0.00 67 1011.5
20260504080609 64 340 2.0 4.0 0.00 0.00 0.00 68 1011.5
20260504080110 64 358 1.0 4.0 0.00 0.00 0.00 69 1011.5
20260504050530 66 348 4.0 9.0 0.00 0.00 0.00 64 1012.6
20260504045530 66 341 4.0 7.0 0.00 0.00 0.00 63 1012.6
20260504045031 66 18 3.0 9.0 0.00 0.00 0.00 63 1012.8
20260504044529 66 355 4.0 9.0 0.00 0.00 0.00 62 1012.8
20260504044029 66 343 3.0 6.0 0.00 0.00 0.00 64 1012.7
20260504043530 66 7 3.0 7.0 0.00 0.00 0.00 64 1012.8
20260504043029 66 0 3.0 7.0 0.00 0.00 0.00 62 1012.8
20260504042530 66 334 4.0 7.0 0.00 0.00 0.00 62 1012.8
20260504042030 67 357 3.0 7.0 0.00 0.00 0.00 62 1012.8
20260504041905 67 347 3.0 9.0 0.00 0.00 0.00 61 1012.9
20260504041031 67 350 4.0 9.0 0.00 0.00 0.00 61 1012.9
20260504040527 67 8 2.0 9.0 0.00 0.00 0.00 61 1013.0
20260504040338 67 345 3.0 9.0 0.00 0.00 0.00 61 1013.1
20260504035840 67 1 4.0 7.0 0.00 0.00 0.00 61 1013.1
20260504035026 67 0 4.0 6.0 0.00 0.00 0.00 60 1013.1
20260504034524 67 1 2.0 5.0 0.00 0.00 0.00 60 1013.1
20260504034022 67 345 3.0 5.0 0.00 0.00 0.00 60 1013.2
20260504033521 67 350 3.0 7.0 0.00 0.00 0.00 59 1013.2
20260504033022 67 21 2.0 7.0 0.00 0.00 0.00 59 1013.1
20260504032520 67 27 4.0 7.0 0.00 0.00 0.00 59 1013.2
20260504032020 67 355 3.0 5.0 0.00 0.00 0.00 59 1013.1
20260504031520 67 347 2.0 6.0 0.00 0.00 0.00 59 1013.1
20260504031015 67 316 4.0 6.0 0.00 0.00 0.00 58 1013.2
20260504030511 67 7 3.0 7.0 0.00 0.00 0.00 58 1013.2
20260504030008 68 358 4.0 9.0 0.00 0.00 0.00 57 1013.2
20260504025652 67 338 4.0 7.0 0.00 0.00 0.00 58 1012.9
20260504025617 68 8 5.0 9.0 0.00 0.00 0.00 57 1013.1
20260504025328 68 17 3.0 6.0 0.00 0.00 0.00 57 1013.0